PSLV R/B, 37747

Orbit data source: Space-Track

PSLV R/B, 37747 is space debris in HEO originally from a launch on Fri, 15 Jul 2011 UTC launched from the Sirharikota (SRI). Debris objects in space refer to the collection of defunct objects orbiting the Earth. Examples of debris include non-operational satellites, rocket bodies, and fragments generated from explosions, collisions, or faulty payload assembly.

Loading next visibility...
Identifier
37747, 2011-034B
Orbit
HEO
Last TLE update
1 day ago
Origin
Manufacturer
VSSC/LPSC
Mission
Spacecraft
Bus & Motor
PS-4, Unknown motor
Mass
920 kg wet, 920 kg dry
Launch date (UTC)
2011-07-15 (14 years ago)
Launch vehicle
Unknown
Launch site
Sirharikota (SRI)
Object type
Payload
Rocket body
Debris
Shape & HBR
Cyl + Cyl + 2 Nozzle, 3.238 m
Radar Cross Section
5.812 m², Large (>1 m²)

Expand to show TLE details & history

TLE from 1 day ago
0 PSLV R/B
1 37747U 11034B   25191.09314023  .00003073  00000-0  81725-3 0  9996
2 37747  17.8993 210.9596 5826596 322.5357   8.4619  4.28156290207900
Epoch: 2025-07-10T02:14Z
TLE epoch observation values (Epoch: 2025-07-10T02:14:07.315Z)
Latitude
0.00001°
Longitude
-110.7867°
Altitude
866.77 km
Speed
9.228 km/s
True Right ascension
14h 04m 01s
True Declination
0° 00' 00"
Sunlit
Object was in daylight at epoch
Visualization orbit readout
Latitude
-17.94197°
Longitude
155.33174°
Altitude
1,676.776 km
Speed
8.608 km/s
Apparent Right ascension
09h 19m 44s
Apparent Declination
-30° 49' 21"
Sunlit
Object is in daylight
Visualization observer readout
Local Sidereal Time
23:49:05
Azimuth
85.049° E
Elevation
-58.479°
Doppler factor
1
Orbital elements
Apogee altitude
18,983.303 km
Perigee altitude
309.564 km
Semi-major axis
16,024.57 km
Eccentricity
0.58266
Inclination
17.8993°
RAAN
210.9596°
Arg. of periapsis
322.5357°
True anomaly
Unknown
Mean anomaly
8.4619°
Eccentric anomaly
Unknown
Mean motion
1.06995 °/min
Orbital period
336.46 mins
BSTAR
0.00081725
Loading maneuver chart data...
Loading SW <> Apogee altitude chart data...
Loading historical data...
Loading historical data...
Loading historical data...
Loading historical data...
Loading historical data...
Loading historical data...
Loading historical data...
Other satellites on launch #34 in the year 2011 (2011-07-15 UTC)

PSLV R/B Visibility forecast

Observer location: undefined°, undefined°

Span
Click to sort rows by Start time (UTC) header in descending order
Start Az.
Max El. time (UTC)
Max El. Az.
Max El.
End time (UTC)
End Az.
229 mins2025-07-11 12:53:02.275Z268.196° W2025-07-11 14:35:02.275Z247.07° WSW23.676°2025-07-11 16:42:02.275Z195.631° SSW
178 mins2025-07-12 04:51:02.275Z203.329° SW2025-07-12 05:07:02.275Z143.251° SSE32.375°2025-07-12 07:49:02.275Z102.014° ESE
37 mins2025-07-12 10:54:02.275Z262.553° W2025-07-12 11:31:02.275Z244.709° WSW30.228°2025-07-12 11:31:02.275Z244.709° WSW
|